Weather History for LGAV - June, 2013

Change the Weather History Date:

Saturday, June 15, 2013

  Actual Average (LGEL) Record (LGEL)
Temperature  
Mean Temperature 73 °F -  
Max Temperature 84 °F 87 °F 98 °F (2000)
Min Temperature 62 °F 68 °F 60 °F (2006)
Cooling Degree Days 8    
Growing Degree Days 23 (Base 50)    
Moisture  
Dew Point 57 °F    
Average Humidity 57    
Maximum Humidity 77    
Minimum Humidity 39    
Precipitation  
Precipitation 0.00 in - - ()
Sea Level Pressure  
Sea Level Pressure 29.93 in    
Wind  
Wind Speed 4 mph ()    
Max Wind Speed 13 mph    
Max Gust Speed -    
Visibility 6.2 miles    
Events      
Averages and records for this station are not official NWS values.
T = Trace of Precipitation, MM = Missing Value Source: Averaged Metar Reports

Daily Weather History Graph

Daily Weather History Graph

Search for Another Location

Airport or City:

Trip Planner

Search our weather history database for the weather conditions in past years. The results will help you decide how hot, cold, wet, or windy it might be!

Date:

Astronomy

Jun. 15, 2013 Rise Set
Actual Time 6:01 AM EEST 8:48 PM EEST
Civil Twilight 5:29 AM EEST 9:19 PM EEST
Nautical Twilight 4:50 AM EEST 9:59 PM EEST
Astronomical Twilight 4:05 AM EEST 10:43 PM EEST
Moon 12:11 PM EEST (6/15) 12:19 AM EEST (6/15)
Length of Visible Light 15h 49m
Length of Day
14h 47m
Waxing Crescent, 36% of the Moon is Illuminated
Jun 15
Waxing Crescent
Jun 16
First Quarter
Jun 23
Full
Jun 30
Last Quarter
Jul 8
New

Hourly Weather History & Observations

Time (EEST) Temp. Heat Index Dew Point Humidity Pressure Visibility Wind Dir Wind Speed Gust Speed Precip Events Conditions
12:20 AM 66.2 °F - 57.2 °F 73% 29.95 in 6.2 mi Variable 2.3 mph - N/A   Partly Cloudy
12:50 AM 66.2 °F - 57.2 °F 73% 29.95 in 6.2 mi Variable 1.2 mph - N/A   Partly Cloudy
1:20 AM 66.2 °F - 57.2 °F 73% 29.95 in 6.2 mi NNW 2.3 mph - N/A   Partly Cloudy
1:50 AM 66.2 °F - 57.2 °F 73% 29.95 in 6.2 mi Variable 1.2 mph - N/A   Partly Cloudy
2:20 AM 66.2 °F - 57.2 °F 73% 29.92 in 6.2 mi WNW 1.2 mph - N/A   Partly Cloudy
2:50 AM 66.2 °F - 57.2 °F 73% 29.92 in 6.2 mi Variable 2.3 mph - N/A   Partly Cloudy
3:20 AM 66.2 °F - 55.4 °F 68% 29.92 in 6.2 mi NW 2.3 mph - N/A   Partly Cloudy
3:50 AM 62.6 °F - 55.4 °F 77% 29.92 in 6.2 mi Calm Calm - N/A   Partly Cloudy
4:20 AM 62.6 °F - 55.4 °F 77% 29.92 in 6.2 mi West 3.5 mph - N/A   Partly Cloudy
4:50 AM 64.4 °F - 55.4 °F 73% 29.92 in 6.2 mi WNW 4.6 mph - N/A   Partly Cloudy
5:20 AM 64.4 °F - 55.4 °F 73% 29.92 in 6.2 mi NW 4.6 mph - N/A   Partly Cloudy
5:50 AM 66.2 °F - 57.2 °F 73% 29.92 in 6.2 mi NW 4.6 mph - N/A   Partly Cloudy
6:20 AM 68.0 °F - 55.4 °F 64% 29.92 in 6.2 mi NW 3.5 mph - N/A   Partly Cloudy
6:50 AM 66.2 °F - 53.6 °F 64% 29.92 in 6.2 mi West 3.5 mph - N/A   Scattered Clouds
7:20 AM 68.0 °F - 57.2 °F 68% 29.92 in - Calm Calm - N/A   Clear
7:50 AM 71.6 °F - 59.0 °F 64% 29.92 in - Variable 1.2 mph - N/A   Clear
8:20 AM 71.6 °F - 57.2 °F 60% 29.92 in - Variable 3.5 mph - N/A   Clear
8:50 AM 73.4 °F - 57.2 °F 57% 29.95 in - Variable 3.5 mph - N/A   Clear
9:20 AM 75.2 °F - 59.0 °F 57% 29.95 in - ENE 6.9 mph - N/A   Clear
9:50 AM 77.0 °F - 59.0 °F 54% 29.95 in - ENE 6.9 mph - N/A   Clear
10:20 AM 77.0 °F - 59.0 °F 54% 29.95 in - NE 8.1 mph - N/A   Clear
10:50 AM 78.8 °F - 55.4 °F 44% 29.95 in 6.2 mi NE 9.2 mph - N/A   Partly Cloudy
11:20 AM 78.8 °F - 53.6 °F 42% 29.95 in 6.2 mi NE 9.2 mph - N/A   Partly Cloudy
11:50 AM 78.8 °F - 53.6 °F 42% 29.95 in 6.2 mi NE 9.2 mph - N/A   Partly Cloudy
12:20 PM 80.6 °F 80.5 °F 55.4 °F 42% 29.95 in 6.2 mi ENE 12.7 mph - N/A   Scattered Clouds
12:50 PM 80.6 °F 80.5 °F 55.4 °F 42% 29.95 in 6.2 mi NE 11.5 mph - N/A   Scattered Clouds
1:20 PM 80.6 °F 80.5 °F 55.4 °F 42% 29.95 in 6.2 mi ENE 8.1 mph - N/A   Scattered Clouds
1:50 PM 80.6 °F 80.5 °F 55.4 °F 42% 29.95 in 6.2 mi ENE 6.9 mph - N/A   Scattered Clouds
2:20 PM 80.6 °F 80.5 °F 55.4 °F 42% 29.95 in 6.2 mi ENE 5.8 mph - N/A   Scattered Clouds
2:50 PM 82.4 °F 81.7 °F 55.4 °F 39% 29.92 in 6.2 mi NNE 6.9 mph - N/A   Scattered Clouds
3:20 PM 82.4 °F 82.5 °F 59.0 °F 45% 29.92 in 6.2 mi East 6.9 mph - N/A   Scattered Clouds
3:50 PM 82.4 °F 82.5 °F 59.0 °F 45% 29.92 in 6.2 mi East 9.2 mph - N/A   Scattered Clouds
4:20 PM 84.2 °F 83.8 °F 59.0 °F 42% 29.92 in 6.2 mi ESE 9.2 mph - N/A   Scattered Clouds
4:50 PM 80.6 °F 81.1 °F 59.0 °F 48% 29.92 in 6.2 mi East 6.9 mph - N/A   Scattered Clouds
5:20 PM 80.6 °F 81.1 °F 59.0 °F 48% 29.92 in 6.2 mi East 6.9 mph - N/A   Scattered Clouds
5:50 PM 80.6 °F 80.8 °F 57.2 °F 45% 29.92 in 6.2 mi ESE 5.8 mph - N/A   Scattered Clouds
6:20 PM 80.6 °F 80.8 °F 57.2 °F 45% 29.92 in 6.2 mi SSE 4.6 mph - N/A   Scattered Clouds
6:50 PM 80.6 °F 80.8 °F 57.2 °F 45% 29.92 in 6.2 mi SSW 10.4 mph - N/A   Partly Cloudy
7:20 PM 78.8 °F - 59.0 °F 51% 29.92 in 6.2 mi SSW 6.9 mph - N/A   Partly Cloudy
7:50 PM 77.0 °F - 59.0 °F 54% 29.92 in 6.2 mi SW 6.9 mph - N/A   Partly Cloudy
8:20 PM 77.0 °F - 57.2 °F 50% 29.92 in - SSW 6.9 mph - N/A   Clear
8:50 PM 75.2 °F - 57.2 °F 53% 29.95 in - SW 4.6 mph - N/A   Clear
9:20 PM 75.2 °F - 57.2 °F 53% 29.95 in - WSW 2.3 mph - N/A   Clear
9:50 PM 75.2 °F - 57.2 °F 53% 29.95 in - Calm Calm - N/A   Clear
10:20 PM 73.4 °F - 57.2 °F 57% 29.95 in - Calm Calm - N/A   Clear
10:50 PM 73.4 °F - 57.2 °F 57% 29.95 in - Calm Calm - N/A   Clear
11:20 PM 68.0 °F - 59.0 °F 73% 29.95 in - WNW 3.5 mph - N/A   Clear
11:50 PM 66.2 °F - 57.2 °F 73% 29.95 in - West 4.6 mph - N/A   Clear